User: anonymous   Login
Location: Turtle Rock Observatory
(36.6913°N, 81.9708°W)
Time: 03:10:31
(UTC-05:00)
Language:

TITAN 4B R/B - Orbit

View from above orbital plane
View from above orbital plane
View from above satellite
View from above satellite

Ground track
Ground track

The orbit data is extracted from the following two-line orbital elements,

1 28647U 05016B   14327.68113232 0.00006800  00000-0  42123-3 0    04
2 28647  56.9986 210.7840 0142602  85.5529 274.4471 15.01179445    09
Epoch (UTC): 23 November 2014 16:20:49
Eccentricity: 0.0142602
inclination: 56.9986°
perigee height: 464 km
apogee height: 662 km
right ascension of ascending node: 210.7840°
argument of perigee: 85.5529°
revolutions per day: 15.01179445
mean anomaly at epoch: 274.4471°
orbit number at epoch: 0

The dashed part of the orbit path shows where the satellite is in the earth's shadow,  

DLR